Epoch 2003 Feb. 10.0 TT = JDT 2452680.5 T 2003 Jan. 21.58699 TT Muraoka q 2.1697567 (2000.0) P Q n 0.15217721 Peri. 173.40877 -0.96813491 +0.24940020 a 3.4745852 Node 21.07533 -0.23254791 -0.86170761 e 0.3755350 Incl. 3.61592 -0.09293151 -0.44188180 P 6.48 >From 557 observations 1990-2001, mean residual 0".84. Nongravitational parameters A1 = +1.68 +/- 0.05, A2 = +0.5284 +/- 0.0012.
m1 = 9.3 + 5 logΔ + 10.0 log r [ , 0] ( 〜2003年 1月21日) m1 = 24.5 + 5 logΔ - 35 log r [ 0,130] (2003年 1月21日〜2003年 5月31日) m1 = 3.0 + 5 logΔ + 23.0 log r [130, ] (2003年 5月31日〜 ) ※ 灰色の曲線は、m1 = 1.6 + 5 logΔ + 25 log r(t - 23) の光度曲線です。